Time,TemperatureF,DewpointF,PressureIn,WindDirection,WindDirectionDegrees,WindSpeedMPH,WindSpeedGustMPH,Humidity,HourlyPrecipIn,Conditions,Clouds,dailyrainin,SoftwareType,DateUTC
2013-02-22 00:01:00,40.0,35.0,30.08,SE,144,2.0,3.0,81,0.00,,,0.00,,2013-02-22 08:01:00,
2013-02-22 00:11:00,40.0,35.0,30.08,SE,144,2.0,3.0,81,0.00,,,0.00,,2013-02-22 08:11:00,
2013-02-22 00:21:00,40.0,35.0,30.08,SE,141,2.0,3.0,81,0.00,,,0.00,,2013-02-22 08:21:00,
2013-02-22 00:31:00,41.0,36.0,30.08,SE,141,0.0,3.0,81,0.00,,,0.00,,2013-02-22 08:31:00,
2013-02-22 00:41:00,41.0,36.0,30.08,SE,141,0.0,3.0,81,0.00,,,0.00,,2013-02-22 08:41:00,
2013-02-22 00:52:00,41.0,36.0,30.08,SE,141,2.0,3.0,81,0.00,,,0.00,,2013-02-22 08:52:00,
2013-02-22 01:03:00,41.0,36.0,30.08,SE,141,1.0,3.0,81,0.00,,,0.00,,2013-02-22 09:03:00,
2013-02-22 01:11:00,39.0,34.0,30.09,SE,141,0.0,1.0,82,0.00,,,0.00,,2013-02-22 09:11:00,
2013-02-22 01:21:00,39.0,34.0,30.09,SE,141,0.0,1.0,82,0.00,,,0.00,,2013-02-22 09:21:00,
2013-02-22 01:31:00,39.0,35.0,30.09,SE,141,2.0,3.0,84,0.00,,,0.00,,2013-02-22 09:31:00,
2013-02-22 01:41:00,39.0,35.0,30.09,SE,141,2.0,3.0,84,0.00,,,0.00,,2013-02-22 09:41:00,
2013-02-22 01:51:00,39.0,35.0,30.09,ESE,114,1.0,3.0,84,0.00,,,0.00,,2013-02-22 09:51:00,
2013-02-22 02:01:00,39.0,34.0,30.09,SE,132,2.0,3.0,83,0.00,,,0.00,,2013-02-22 10:01:00,
2013-02-22 02:11:00,39.0,34.0,30.09,SE,132,2.0,3.0,83,0.00,,,0.00,,2013-02-22 10:11:00,
2013-02-22 02:21:00,39.0,35.0,30.08,SE,133,1.0,3.0,84,0.00,,,0.00,,2013-02-22 10:21:00,
2013-02-22 02:31:00,38.0,34.0,30.08,SE,133,2.0,3.0,85,0.00,,,0.00,,2013-02-22 10:31:00,
2013-02-22 02:42:00,38.0,34.0,30.08,SE,133,2.0,3.0,85,0.00,,,0.00,,2013-02-22 10:42:00,
2013-02-22 02:51:00,38.0,34.0,30.09,SE,134,0.0,3.0,85,0.00,,,0.00,,2013-02-22 10:51:00,
2013-02-22 03:01:00,37.0,34.0,30.09,SE,134,1.0,3.0,87,0.00,,,0.00,,2013-02-22 11:01:00,
2013-02-22 03:11:00,37.0,34.0,30.09,SE,134,1.0,3.0,87,0.00,,,0.00,,2013-02-22 11:11:00,
2013-02-22 03:21:00,37.0,34.0,30.09,SE,136,2.0,3.0,87,0.00,,,0.00,,2013-02-22 11:21:00,
2013-02-22 03:32:00,37.0,34.0,30.09,SE,141,1.0,3.0,88,0.00,,,0.00,,2013-02-22 11:32:00,
2013-02-22 03:42:00,37.0,34.0,30.09,SE,141,1.0,3.0,88,0.00,,,0.00,,2013-02-22 11:42:00,
2013-02-22 03:52:00,37.0,34.0,30.09,SE,136,2.0,3.0,88,0.00,,,0.00,,2013-02-22 11:52:00,
2013-02-22 04:01:00,37.0,34.0,30.09,SE,130,2.0,3.0,88,0.00,,,0.00,,2013-02-22 12:01:00,
2013-02-22 04:11:00,37.0,34.0,30.09,SE,130,2.0,3.0,88,0.00,,,0.00,,2013-02-22 12:11:00,
2013-02-22 04:21:00,38.0,35.0,30.08,SE,138,1.0,3.0,88,0.00,,,0.00,,2013-02-22 12:21:00,
2013-02-22 04:32:00,37.0,34.0,30.09,SE,137,0.0,3.0,87,0.00,,,0.00,,2013-02-22 12:32:00,
2013-02-22 04:42:00,37.0,34.0,30.09,SE,137,0.0,3.0,87,0.00,,,0.00,,2013-02-22 12:42:00,
2013-02-22 04:52:00,36.0,33.0,30.09,SSE,152,2.0,3.0,89,0.00,,,0.00,,2013-02-22 12:52:00,
2013-02-22 05:01:00,36.0,33.0,30.09,SE,136,3.0,5.0,89,0.00,,,0.00,,2013-02-22 13:01:00,
2013-02-22 05:11:00,36.0,33.0,30.09,SE,136,3.0,5.0,89,0.00,,,0.00,,2013-02-22 13:11:00,
2013-02-22 05:22:00,35.0,32.0,30.10,ESE,123,1.0,3.0,90,0.00,,,0.00,,2013-02-22 13:22:00,
2013-02-22 05:31:00,36.0,33.0,30.11,SE,126,2.0,3.0,89,0.00,,,0.00,,2013-02-22 13:31:00,
2013-02-22 05:41:00,36.0,33.0,30.11,SE,126,2.0,3.0,89,0.00,,,0.00,,2013-02-22 13:41:00,
2013-02-22 05:51:00,36.0,33.0,30.11,SE,126,2.0,3.0,89,0.00,,,0.00,,2013-02-22 13:51:00,
2013-02-22 06:01:00,36.0,33.0,30.11,SE,138,1.0,3.0,88,0.00,,,0.00,,2013-02-22 14:01:00,
2013-02-22 06:11:00,36.0,33.0,30.11,SE,138,1.0,2.0,89,0.00,,,0.00,,2013-02-22 14:11:00,
2013-02-22 06:21:00,36.0,33.0,30.11,SE,138,1.0,2.0,89,0.00,,,0.00,,2013-02-22 14:21:00,
2013-02-22 06:32:00,36.0,33.0,30.11,SE,138,1.0,2.0,89,0.00,,,0.00,,2013-02-22 14:32:00,
2013-02-22 06:41:00,36.0,33.0,30.11,SE,138,1.0,2.0,89,0.00,,,0.00,,2013-02-22 14:41:00,
2013-02-22 06:52:00,37.0,34.0,30.10,SSW,203,1.0,4.0,87,0.00,,,0.00,,2013-02-22 14:52:00,
2013-02-22 07:01:00,36.0,33.0,30.11,ESE,111,0.0,3.0,89,0.00,,,0.00,,2013-02-22 15:01:00,
2013-02-22 07:11:00,36.0,33.0,30.11,ESE,111,0.0,3.0,89,0.00,,,0.00,,2013-02-22 15:11:00,
2013-02-22 07:21:00,35.0,32.0,30.11,SE,138,1.0,3.0,90,0.00,,,0.00,,2013-02-22 15:21:00,
2013-02-22 07:32:00,35.0,33.0,30.12,SE,138,2.0,3.0,91,0.00,,,0.00,,2013-02-22 15:32:00,
2013-02-22 07:41:00,35.0,33.0,30.12,SE,138,2.0,3.0,91,0.00,,,0.00,,2013-02-22 15:41:00,
2013-02-22 07:51:00,36.0,33.0,30.13,SE,131,2.0,4.0,90,0.00,,,0.00,,2013-02-22 15:51:00,
2013-02-22 08:01:00,37.0,34.0,30.13,SE,133,1.0,3.0,90,0.00,,,0.00,,2013-02-22 16:01:00,
2013-02-22 08:11:00,37.0,34.0,30.13,SE,133,1.0,3.0,90,0.00,,,0.00,,2013-02-22 16:11:00,
2013-02-22 08:21:00,38.0,35.0,30.14,SE,136,1.0,2.0,88,0.00,,,0.00,,2013-02-22 16:21:00,
2013-02-22 08:31:00,39.0,35.0,30.14,SE,142,0.0,2.0,86,0.00,,,0.00,,2013-02-22 16:31:00,
2013-02-22 08:41:00,39.0,35.0,30.14,SE,142,0.0,2.0,86,0.00,,,0.00,,2013-02-22 16:41:00,
2013-02-22 08:52:00,40.0,36.0,30.15,SE,142,0.0,1.0,85,0.00,,,0.00,,2013-02-22 16:52:00,
2013-02-22 09:01:00,41.0,36.0,30.14,SE,142,0.0,2.0,81,0.00,,,0.00,,2013-02-22 17:01:00,
2013-02-22 09:11:00,41.0,36.0,30.14,SE,142,0.0,2.0,81,0.00,,,0.00,,2013-02-22 17:11:00,
2013-02-22 09:21:00,44.0,38.0,30.14,SE,142,1.0,2.0,78,0.00,,,0.00,,2013-02-22 17:21:00,
2013-02-22 09:31:00,47.0,41.0,30.15,South,182,0.0,2.0,78,0.00,,,0.00,,2013-02-22 17:31:00,
2013-02-22 09:41:00,47.0,41.0,30.15,South,182,0.0,2.0,78,0.00,,,0.00,,2013-02-22 17:41:00,
2013-02-22 09:52:00,49.0,40.0,30.15,NNW,337,1.0,2.0,70,0.00,,,0.00,,2013-02-22 17:52:00,
2013-02-22 10:01:00,50.0,39.0,30.15,North,5,0.0,1.0,65,0.00,,,0.00,,2013-02-22 18:01:00,
2013-02-22 10:11:00,50.0,39.0,30.15,North,5,0.0,1.0,65,0.00,,,0.00,,2013-02-22 18:11:00,
2013-02-22 10:22:00,51.0,38.0,30.15,North,11,1.0,3.0,62,0.00,,,0.00,,2013-02-22 18:22:00,
2013-02-22 10:32:00,54.0,40.0,30.15,North,5,1.0,3.0,58,0.00,,,0.00,,2013-02-22 18:32:00,
2013-02-22 10:42:00,54.0,40.0,30.15,North,5,1.0,3.0,58,0.00,,,0.00,,2013-02-22 18:42:00,
2013-02-22 10:52:00,56.0,41.0,30.15,West,275,1.0,4.0,57,0.00,,,0.00,,2013-02-22 18:52:00,
2013-02-22 11:01:00,58.0,39.0,30.15,West,270,2.0,6.0,50,0.00,,,0.00,,2013-02-22 19:01:00,
2013-02-22 11:11:00,58.0,39.0,30.15,NW,311,3.0,7.0,50,0.00,,,0.00,,2013-02-22 19:11:00,
2013-02-22 11:21:00,58.0,39.0,30.15,NW,311,3.0,7.0,50,0.00,,,0.00,,2013-02-22 19:21:00,
2013-02-22 11:31:00,59.0,37.0,30.15,NNW,342,4.0,8.0,43,0.00,,,0.00,,2013-02-22 19:31:00,
2013-02-22 11:41:00,59.0,37.0,30.15,NNW,342,4.0,8.0,43,0.00,,,0.00,,2013-02-22 19:41:00,
2013-02-22 11:52:00,61.0,36.0,30.16,WNW,287,4.0,9.0,40,0.00,,,0.00,,2013-02-22 19:52:00,
2013-02-22 12:01:00,61.0,36.0,30.16,WSW,248,4.0,9.0,40,0.00,,,0.00,,2013-02-22 20:01:00,
2013-02-22 12:11:00,61.0,36.0,30.16,WSW,248,4.0,9.0,40,0.00,,,0.00,,2013-02-22 20:11:00,
2013-02-22 12:21:00,62.0,35.0,30.15,SW,222,5.0,11.0,36,0.00,,,0.00,,2013-02-22 20:21:00,
2013-02-22 12:31:00,62.0,37.0,30.15,NW,305,4.0,10.0,39,0.00,,,0.00,,2013-02-22 20:31:00,
2013-02-22 12:41:00,62.0,37.0,30.15,NW,305,4.0,10.0,39,0.00,,,0.00,,2013-02-22 20:41:00,
2013-02-22 12:52:00,63.0,34.0,30.14,West,263,4.0,10.0,34,0.00,,,0.00,,2013-02-22 20:52:00,
2013-02-22 13:01:00,62.0,33.0,30.13,WSW,258,5.0,8.0,33,0.00,,,0.00,,2013-02-22 21:01:00,
2013-02-22 13:11:00,62.0,33.0,30.13,WSW,258,5.0,8.0,33,0.00,,,0.00,,2013-02-22 21:11:00,
2013-02-22 13:21:00,62.0,34.0,30.13,NW,309,5.0,9.0,35,0.00,,,0.00,,2013-02-22 21:21:00,
2013-02-22 13:31:00,63.0,36.0,30.12,SW,230,4.0,13.0,36,0.00,,,0.00,,2013-02-22 21:31:00,
2013-02-22 13:41:00,63.0,36.0,30.12,SW,230,4.0,13.0,36,0.00,,,0.00,,2013-02-22 21:41:00,
2013-02-22 13:52:00,63.0,37.0,30.11,SW,229,2.0,11.0,38,0.00,,,0.00,,2013-02-22 21:52:00,
2013-02-22 14:01:00,63.0,37.0,30.11,SW,229,2.0,11.0,38,0.00,,,0.00,,2013-02-22 22:01:00,
2013-02-22 14:11:00,63.0,37.0,30.11,SW,229,2.0,11.0,38,0.00,,,0.00,,2013-02-22 22:11:00,
2013-02-22 14:21:00,65.0,39.0,30.09,SW,232,3.0,8.0,39,0.00,,,0.00,,2013-02-22 22:21:00,
2013-02-22 14:31:00,65.0,38.0,30.09,West,281,3.0,9.0,37,0.00,,,0.00,,2013-02-22 22:31:00,
2013-02-22 14:42:00,65.0,38.0,30.09,West,281,3.0,9.0,37,0.00,,,0.00,,2013-02-22 22:42:00,
2013-02-22 14:52:00,65.0,38.0,30.08,WSW,249,4.0,7.0,37,0.00,,,0.00,,2013-02-22 22:52:00,
2013-02-22 15:01:00,65.0,39.0,30.08,West,275,4.0,8.0,38,0.00,,,0.00,,2013-02-22 23:01:00,
2013-02-22 15:11:00,65.0,39.0,30.08,West,275,4.0,8.0,38,0.00,,,0.00,,2013-02-22 23:11:00,
2013-02-22 15:21:00,65.0,37.0,30.08,WSW,248,4.0,8.0,36,0.00,,,0.00,,2013-02-22 23:21:00,
2013-02-22 15:31:00,65.0,37.0,30.08,WSW,240,5.0,11.0,36,0.00,,,0.00,,2013-02-22 23:31:00,
2013-02-22 15:41:00,65.0,37.0,30.08,WSW,240,5.0,11.0,36,0.00,,,0.00,,2013-02-22 23:41:00,
2013-02-22 15:52:00,64.0,38.0,30.08,SSW,208,3.0,8.0,38,0.00,,,0.00,,2013-02-22 23:52:00,
2013-02-22 16:01:00,63.0,38.0,30.08,South,169,4.0,8.0,39,0.00,,,0.00,,2013-02-23 00:01:00,
2013-02-22 16:11:00,63.0,38.0,30.08,South,169,4.0,8.0,39,0.00,,,0.00,,2013-02-23 00:11:00,
2013-02-22 16:21:00,63.0,40.0,30.08,WSW,258,1.0,9.0,42,0.00,,,0.00,,2013-02-23 00:21:00,
2013-02-22 16:31:00,62.0,39.0,30.08,WSW,248,2.0,6.0,43,0.00,,,0.00,,2013-02-23 00:31:00,
2013-02-22 16:41:00,62.0,39.0,30.08,WSW,248,2.0,6.0,43,0.00,,,0.00,,2013-02-23 00:41:00,
2013-02-22 16:52:00,61.0,40.0,30.07,WSW,250,1.0,8.0,45,0.00,,,0.00,,2013-02-23 00:52:00,
2013-02-22 17:01:00,60.0,41.0,30.06,SE,132,0.0,3.0,49,0.00,,,0.00,,2013-02-23 01:01:00,
2013-02-22 17:11:00,60.0,41.0,30.06,SE,132,0.0,3.0,49,0.00,,,0.00,,2013-02-23 01:11:00,
2013-02-22 17:21:00,58.0,40.0,30.07,ESE,117,1.0,5.0,52,0.00,,,0.00,,2013-02-23 01:21:00,
2013-02-22 17:31:00,56.0,40.0,30.07,WSW,245,1.0,5.0,55,0.00,,,0.00,,2013-02-23 01:31:00,
2013-02-22 17:41:00,56.0,40.0,30.07,WSW,245,1.0,5.0,55,0.00,,,0.00,,2013-02-23 01:41:00,
2013-02-22 17:52:00,55.0,40.0,30.07,South,180,2.0,4.0,57,0.00,,,0.00,,2013-02-23 01:52:00,
2013-02-22 18:01:00,54.0,40.0,30.06,WSW,242,1.0,3.0,60,0.00,,,0.00,,2013-02-23 02:01:00,
2013-02-22 18:11:00,54.0,40.0,30.06,WSW,242,1.0,3.0,60,0.00,,,0.00,,2013-02-23 02:11:00,
2013-02-22 18:21:00,54.0,40.0,30.06,WSW,242,1.0,3.0,60,0.00,,,0.00,,2013-02-23 02:21:00,
2013-02-22 18:31:00,52.0,40.0,30.08,NNW,344,0.0,3.0,64,0.00,,,0.00,,2013-02-23 02:31:00,
2013-02-22 18:41:00,52.0,40.0,30.08,NNW,344,0.0,3.0,64,0.00,,,0.00,,2013-02-23 02:41:00,
2013-02-22 18:52:00,51.0,40.0,30.08,NNE,22,1.0,3.0,65,0.00,,,0.00,,2013-02-23 02:52:00,
2013-02-22 19:01:00,51.0,40.0,30.09,SSE,154,0.0,3.0,66,0.00,,,0.00,,2013-02-23 03:01:00,
2013-02-22 19:11:00,51.0,40.0,30.09,SSE,154,0.0,3.0,66,0.00,,,0.00,,2013-02-23 03:11:00,
2013-02-22 19:21:00,51.0,40.0,30.09,NE,35,0.0,4.0,66,0.00,,,0.00,,2013-02-23 03:21:00,
2013-02-22 19:31:00,51.0,40.0,30.09,WNW,286,2.0,6.0,66,0.00,,,0.00,,2013-02-23 03:31:00,
2013-02-22 19:41:00,51.0,40.0,30.09,WNW,286,2.0,6.0,66,0.00,,,0.00,,2013-02-23 03:41:00,
2013-02-22 19:52:00,51.0,40.0,30.09,West,259,3.0,9.0,67,0.00,,,0.00,,2013-02-23 03:52:00,
2013-02-22 20:01:00,50.0,40.0,30.08,WNW,286,2.0,8.0,68,0.00,,,0.00,,2013-02-23 04:01:00,
2013-02-22 20:11:00,50.0,40.0,30.08,WNW,286,2.0,8.0,68,0.00,,,0.00,,2013-02-23 04:11:00,
2013-02-22 20:21:00,50.0,40.0,30.09,WNW,288,2.0,7.0,69,0.00,,,0.00,,2013-02-23 04:21:00,
2013-02-22 20:31:00,49.0,40.0,30.09,West,274,1.0,5.0,71,0.00,,,0.00,,2013-02-23 04:31:00,
2013-02-22 20:41:00,49.0,40.0,30.09,West,274,1.0,5.0,71,0.00,,,0.00,,2013-02-23 04:41:00,
2013-02-22 20:52:00,48.0,39.0,30.09,WSW,245,1.0,3.0,72,0.00,,,0.00,,2013-02-23 04:52:00,
2013-02-22 21:01:00,48.0,40.0,30.10,West,277,4.0,7.0,74,0.00,,,0.00,,2013-02-23 05:01:00,
2013-02-22 21:11:00,48.0,40.0,30.10,West,277,4.0,7.0,74,0.00,,,0.00,,2013-02-23 05:11:00,
2013-02-22 21:22:00,47.0,39.0,30.10,West,272,2.0,8.0,74,0.00,,,0.00,,2013-02-23 05:22:00,
2013-02-22 21:32:00,48.0,40.0,30.10,WSW,257,2.0,6.0,74,0.00,,,0.00,,2013-02-23 05:32:00,
2013-02-22 21:41:00,48.0,40.0,30.10,WSW,257,2.0,6.0,74,0.00,,,0.00,,2013-02-23 05:41:00,
2013-02-22 21:52:00,47.0,39.0,30.11,NW,311,1.0,6.0,74,0.00,,,0.00,,2013-02-23 05:52:00,
2013-02-22 22:01:00,47.0,39.0,30.11,NNW,346,3.0,9.0,74,0.00,,,0.00,,2013-02-23 06:01:00,
2013-02-22 22:11:00,47.0,39.0,30.11,NNW,346,3.0,9.0,74,0.00,,,0.00,,2013-02-23 06:11:00,
2013-02-22 22:22:00,47.0,39.0,30.11,NW,317,5.0,13.0,73,0.00,,,0.00,,2013-02-23 06:22:00,
2013-02-22 22:31:00,48.0,39.0,30.11,WSW,250,8.0,15.0,70,0.00,,,0.00,,2013-02-23 06:31:00,
2013-02-22 22:41:00,48.0,39.0,30.11,WSW,250,8.0,15.0,70,0.00,,,0.00,,2013-02-23 06:41:00,
2013-02-22 22:52:00,48.0,38.0,30.12,WNW,300,6.0,13.0,69,0.00,,,0.00,,2013-02-23 06:52:00,
2013-02-22 23:01:00,48.0,38.0,30.12,WNW,300,6.0,13.0,69,0.00,,,0.00,,2013-02-23 07:01:00,
2013-02-22 23:11:00,48.0,38.0,30.12,WNW,300,6.0,13.0,69,0.00,,,0.00,,2013-02-23 07:11:00,
2013-02-22 23:21:00,48.0,38.0,30.12,WNW,300,6.0,13.0,69,0.00,,,0.00,,2013-02-23 07:21:00,